Location: Newark
(42.8481°N, 0.4872°E)
Time: 21:54:02
(UTC+00:00)

Transit 2A Rocket - Pass Details

Date: 01 November 2020
Orbit: 588 x 914 km, 66.7° (Epoch: 29 November)

Event Time Altitude Azimuth Distance (km) Brightness Sun altitude
Rises 07:54:28 0° 190° (S) 3,528 8.8 12.5°
Reaches altitude 10° 07:57:04 10° 185° (S) 2,595 8.2 12.9°
Maximum altitude 08:02:51 46° 113° (ESE) 1,192 7.1 13.8°
Drops below altitude 10° 08:08:29 10° 42° (NE) 2,536 7.8 14.6°
Sets 08:11:00 0° 37° (NE) 3,442 8.4 15.0°
